{"data":{"norad_id":44475,"intl_designator":"2019-049A","name":"EDRS-C","alt_names":[],"object_type":"PAYLOAD","status":"ACTIVE","operator":null,"country":"ESA","launch_date":"2019-08-06","launch_site_code":"FRGUI","launch_vehicle":null,"mission":null,"orbit_class":"UNKNOWN","rcs_meters":null,"size_class":null,"mass_kg":null,"dimensions":null,"purposes":["comms"],"wikipedia_slug":null,"has_3d_model":false,"image_url":null,"decayed_at":null,"tle_current":{"epoch":"2026-09-19T22:46:47.900064Z","epoch_age_seconds":69620,"freshness":"FRESH","line1":"1 44475U 19049A   26262.94916551 -.00000266  00000+0  00000+0 0  9998","line2":"2 44475   0.0162 202.6733 0001157 325.0175 315.3726  1.00272578 26169","mean_motion":1.00272578,"eccentricity":0.0001157,"inclination_deg":0.0162,"raan_deg":202.6733,"arg_perigee_deg":325.0175,"mean_anomaly_deg":315.3726,"bstar":0,"rev_number":2616,"period_min":1436.0855467384,"perigee_km":35781.494222202,"apogee_km":35791.251089736,"semimajor_km":42164.509655969,"source":"CELESTRAK","updated_at":"2026-09-20T09:00:35.268621Z"}}}